This demonstration page uses our WeatherBlox Daily Observations layout. Learn more.

Left ArrowRight Arrow

39.12711, -84.51439

Hourly Observations for June 8, 2021

Temp ( °F °C ) Dew Point ( °F °C ) Humidity (%) Winds ( mph kmh ) Pressure ( in mb ) Visibility ( mi km ) Precip ( " mm )
12:53 am 00:53 Cloudy 68 20 67 19.4 96 96 N N/A 30.06 1018 9 14 N/A
1:05 am 01:05 Cloudy with Mist and Fog 68 20 67 19.4 96 96 N N/A 30.06 1018 3 4 N/A
1:12 am 01:12 Mostly Cloudy 69 20.6 68 20 96 96 N N/A 30.05 1018 10 16 N/A
1:23 am 01:23 Mostly Cloudy with Mist and Fog 69 20.6 68 20 96 96 N N/A 30.06 1018 2 3 N/A
1:33 am 01:33 Mostly Cloudy with Fog 69 20.6 67 19.4 93 93 N N/A 30.05 1018 1 1 N/A
1:48 am 01:48 Cloudy with Mist and Fog 70 21 66 19 88 88 N N/A 30.05 1017 2 2 N/A
1:53 am 01:53 Cloudy with Mist and Fog 69 20.6 68 20 96 96 N N/A 30.04 1017 1 2 N/A
2:12 am 02:12 Mostly Cloudy with Mist and Fog 69 20.6 68 20 96 96 N N/A 30.05 1018 4 6 N/A
2:53 am 02:53 Partly Cloudy 69 20.6 67 19.4 93 93 N N/A 30.03 1017 10 16 N/A
3:07 am 03:07 Clear with Mist and Fog 68 20 66 18.9 93 93 N N/A 30.03 1017 2 2 N/A
3:16 am 03:16 Clear with Fog 68 20 67 19.4 96 96 N N/A 30.03 1017 1 1 N/A
3:27 am 03:27 Clear with Mist and Fog 68 20 67 19.4 96 96 N N/A 30.03 1017 1 2 N/A
3:37 am 03:37 Clear with Mist and Fog 68 20 67 19.4 96 96 N N/A 30.03 1017 3 5 N/A
3:43 am 03:43 Clear with Mist and Fog 68 20 67 19.4 96 96 N N/A 30.03 1017 2 3 N/A
3:53 am 03:53 Clear with Mist and Fog 66 18.9 66 18.9 100 100 N N/A 30.03 1017 1 1 N/A
4:03 am 04:03 Mostly Cloudy with Mist and Fog 66 18.9 65 18.3 96 96 N N/A 30.03 1017 1 1 N/A
4:32 am 04:32 Mostly Cloudy with Fog 66 18.9 65 18.3 96 96 N N/A 30.03 1017 0 0 N/A
4:51 am 04:51 Mostly Cloudy with Mist and Fog 66 19 64 18 94 94 N N/A 30.03 1017 1 1 N/A
4:53 am 04:53 Mostly Cloudy with Mist and Fog 67 19.4 66 18.9 97 97 N N/A 30.03 1017 1 1 N/A
4:57 am 04:57 Partly Cloudy with Mist and Fog 67 19.4 66 18.9 97 97 N N/A 30.03 1017 1 2 N/A
5:08 am 05:08 Mostly Cloudy with Mist and Fog 67 19.4 65 18.3 93 93 N N/A 30.04 1017 1 1 N/A
5:15 am 05:15 Clear with Fog 66 18.9 65 18.3 96 96 N N/A 30.04 1017 1 1 N/A
5:53 am 05:53 Clear with Mist and Fog 67 19.4 66 18.9 97 97 N N/A 30.04 1017 1 1 N/A
6:18 am 06:18 Mostly Cloudy with Fog 66 18.9 65 18.3 96 96 N N/A 30.05 1018 0 0 N/A
6:26 am 06:26 Mostly Cloudy with Fog 66 18.9 65 18.3 96 96 N N/A 30.05 1018 0 0 N/A
6:33 am 06:33 Mostly Cloudy with Fog 66 18.9 65 18.3 96 96 W 3 6 30.06 1018 1 1 N/A
6:41 am 06:41 Partly Cloudy with Mist and Fog 66 18.9 66 18.9 100 100 N N/A 30.06 1018 2 3 N/A
6:48 am 06:48 Partly Cloudy with Mist and Fog 66 19 66 19 100 100 N N/A 30.06 1018 4 6 N/A
6:53 am 06:53 Sunny 67 19.4 66 18.9 97 97 N N/A 30.06 1018 10 16 N/A
7:53 am 07:53 Mostly Sunny 70 21.1 68 20 93 93 N N/A 30.09 1019 9 14 N/A
8:53 am 08:53 Mostly Cloudy 72 22.2 69 20.6 91 91 N N/A 30.09 1019 10 16 N/A
9:53 am 09:53 Mostly Cloudy 74 23.3 70 21.1 88 88 N N/A 30.09 1019 10 16 N/A
10:53 am 10:53 Partly Cloudy 78 25.6 70 21.1 76 76 S 3 6 30.09 1019 10 16 N/A
11:53 am 11:53 Mostly Sunny 80 26.7 71 21.7 74 74 SSE 8 13 30.09 1019 10 16 N/A
12:53 pm 12:53 Mostly Sunny 81 27.2 71 21.7 72 72 SSW 6 9 30.09 1019 10 16 N/A
1:53 pm 13:53 Mostly Sunny 81 27.2 69 20.6 67 67 SSW 9 15 30.07 1018 10 16 N/A
2:53 pm 14:53 Partly Cloudy 81 27.2 68 20 65 65 SW 9 15 30.06 1018 10 16 N/A
3:53 pm 15:53 Mostly Sunny 81 27.2 68 20 65 65 SW 8 13 30.06 1018 10 16 N/A
4:53 pm 16:53 Mostly Sunny 80 26.7 66 18.9 62 62 W 10 17 30.05 1018 10 16 N/A
5:53 pm 17:53 Mostly Cloudy 78 25.6 67 19.4 69 69 W 7 11 30.06 1018 10 16 N/A
6:53 pm 18:53 Partly Cloudy with Light Rain 76 24.4 70 21.1 82 82 WNW 6 9 30.06 1018 10 16 0.01 0.25
7:53 pm 19:53 Mostly Sunny 75 23.9 71 21.7 88 88 N N/A 30.05 1018 10 16 0.00 0.00
8:53 pm 20:53 Sunny 73 22.8 71 21.7 94 94 S 3 6 30.06 1018 10 16 N/A
9:53 pm 21:53 Partly Cloudy 71 21.7 69 20.6 94 94 SSE 5 7 30.06 1018 10 16 N/A
10:53 pm 22:53 Mostly Cloudy with Light Rain 73 22.8 69 20.6 87 87 N N/A 30.07 1018 10 16 0.00 0.00
11:53 pm 23:53 Clear 72 22.2 69 20.6 91 91 S 3 6 30.07 1018 10 16 0.00 0.00

Powered by AerisWeather